Orbital Elements at Epoch 2459000.5 (2020-May-31.0) TDB
Reference: JPL 14 (heliocentric ecliptic J2000)
Element | Value | Uncertainty (1-sigma) | Units |
e | .07817253116489895 | 6.4408e-08 | |
a | 2.548805330199396 | 1.9656e-08 | au |
q | 2.349558766091123 | 1.6621e-07 | au |
i | 2.354918569313785 | 7.0041e-06 | deg |
node | 33.3637344328633 | 0.00012997 | deg |
peri | 114.5935845951629 | 0.00013765 | deg |
M | 120.631889067354 | 4.4295e-05 | deg |
tp | 2458502.461341160847 (2019-Jan-18.96134116) | 0.00018108 | TDB |
period | 1486.289558824595 4.07 | 1.7193e-05 4.707e-08 | d yr |
n | .2422139063431888 | 2.8019e-09 | deg/d |
Q | 2.748051894307668 | 2.1192e-08 | au |
|
| | Orbit Determination Parameters
Additional Information
|